FW3877 Weather Reports


Display with metric or nautical units.
time (UTC)temp
F
wind
direction
speed
MPH
gust
MPH
rain 1hr
in
rain 24hr
in
rain mn
in
humidity
%
barometer
mb
20260506160704 53 2 4.0 9.0 0.00 0.00 0.00 64 1012.5
20260506160204 53 342 4.0 8.0 0.00 0.00 0.00 65 1012.5
20260506155704 53 0 5.0 10.0 0.00 0.00 0.00 65 1012.5
20260506155204 53 355 5.0 9.0 0.00 0.00 0.00 64 1012.5
20260506154705 53 339 3.0 8.0 0.00 0.00 0.00 64 1012.4
20260506154203 53 0 5.0 8.0 0.00 0.00 0.00 64 1012.4
20260506153703 53 14 7.0 10.0 0.00 0.00 0.00 62 1012.5
20260506153204 53 28 6.0 9.0 0.00 0.00 0.00 63 1012.5
20260506152703 53 9 5.0 10.0 0.00 0.00 0.00 64 1012.5
20260506152203 53 348 5.0 12.0 0.00 0.00 0.00 62 1012.5
20260506151704 54 9 5.0 9.0 0.00 0.00 0.00 63 1012.6
20260506151203 53 32 5.0 7.0 0.00 0.00 0.00 65 1012.6
20260506150703 53 16 5.0 9.0 0.00 0.00 0.00 64 1012.7
20260506145704 54 15 7.0 12.0 0.00 0.00 0.00 64 1012.8
20260506145203 54 1 7.0 12.0 0.00 0.00 0.00 63 1012.8
20260506144705 54 52 5.0 12.0 0.00 0.00 0.00 61 1012.9
20260506144204 54 4 5.0 14.0 0.00 0.00 0.00 63 1012.9
20260506143704 54 325 4.0 8.0 0.00 0.00 0.00 61 1012.9
20260506143204 56 358 3.0 8.0 0.00 0.00 0.00 58 1012.9
20260506142704 56 230 6.0 10.0 0.00 0.00 0.00 58 1012.9
20260506142205 55 218 6.0 13.0 0.00 0.00 0.00 61 1013.0
20260506141205 54 265 2.0 3.0 0.00 0.00 0.00 60 1013.1
20260506140705 54 249 3.0 8.0 0.00 0.00 0.00 60 1013.2
20260506135704 55 203 2.0 3.0 0.00 0.00 0.00 59 1013.3
20260506135204 55 232 3.0 7.0 0.00 0.00 0.00 61 1013.4
20260506134704 55 186 5.0 9.0 0.00 0.00 0.00 60 1013.4
20260506133703 54 307 2.0 3.0 0.00 0.00 0.00 64 1013.6
20260506133204 54 0 3.0 8.0 0.00 0.00 0.00 64 1013.5
20260506132203 53 310 2.0 3.0 0.00 0.00 0.00 65 1013.7
20260506131704 53 30 2.0 3.0 0.00 0.00 0.00 65 1013.7
20260506130703 53 163 1.0 5.0 0.00 0.00 0.00 66 1013.8
20260506130203 52 126 2.0 7.0 0.00 0.00 0.00 65 1013.9
20260506125704 53 33 3.0 8.0 0.00 0.00 0.00 65 1013.9
20260506124704 52 37 3.0 7.0 0.00 0.00 0.00 68 1013.8
20260506124203 52 31 4.0 8.0 0.00 0.00 0.00 66 1013.9
20260506123204 52 28 2.0 6.0 0.00 0.00 0.00 67 1014.0
20260506122704 52 348 2.0 8.0 0.00 0.00 0.00 65 1014.1
20260506122203 52 286 3.0 9.0 0.00 0.00 0.00 64 1014.2
20260506121704 53 27 5.0 8.0 0.00 0.00 0.00 66 1014.2
20260506121204 53 314 3.0 6.0 0.00 0.00 0.00 67 1014.2
20260506120703 52 354 5.0 8.0 0.00 0.00 0.00 68 1014.2
20260506120204 51 337 3.0 9.0 0.00 0.00 0.00 66 1014.2
20260506115203 52 46 3.0 8.0 0.00 0.00 0.00 69 1014.2
20260506114704 52 254 3.0 8.0 0.00 0.00 0.00 68 1014.3
20260506113705 51 293 3.0 10.0 0.00 0.00 0.00 68 1014.5
20260506113203 51 314 2.0 7.0 0.00 0.00 0.00 67 1014.4
20260506112704 51 312 2.0 3.0 0.00 0.00 0.00 70 1014.5
20260506112203 51 310 2.0 8.0 0.00 0.00 0.00 69 1014.5
20260506111704 52 5 5.0 8.0 0.00 0.00 0.00 68 1014.6
20260506111203 52 340 2.0 5.0 0.00 0.00 0.00 68 1014.7
20260506110203 51 45 2.0 6.0 0.00 0.00 0.00 68 1014.6
20260506105704 51 338 3.0 6.0 0.00 0.00 0.00 69 1014.6
20260506105204 51 13 3.0 6.0 0.00 0.00 0.00 72 1014.5
20260506104703 50 95 3.0 7.0 0.00 0.00 0.00 70 1014.5
20260506104204 50 45 2.0 7.0 0.00 0.00 0.00 73 1014.6
20260506102704 49 340 4.0 6.0 0.00 0.00 0.00 72 1014.8
20260506102204 49 287 2.0 3.0 0.00 0.00 0.00 72 1014.7
20260506101705 50 305 3.0 6.0 0.00 0.00 0.00 72 1014.7
20260506100703 50 275 3.0 7.0 0.00 0.00 0.00 74 1014.8
20260506100204 50 283 4.0 9.0 0.00 0.00 0.00 74 1014.8
20260506095703 50 272 1.0 9.0 0.00 0.00 0.00 74 1014.9
20260506095204 50 304 2.0 6.0 0.00 0.00 0.00 74 1015.0
20260506094703 50 316 1.0 7.0 0.00 0.00 0.00 75 1014.9
20260506094204 50 334 2.0 3.0 0.00 0.00 0.00 75 1015.0
20260506093704 50 280 2.0 3.0 0.00 0.00 0.00 76 1015.0
20260506093204 50 328 2.0 3.0 0.00 0.00 0.00 76 1015.1
20260506092704 50 321 1.0 3.0 0.00 0.00 0.00 76 1015.1
20260506092204 50 312 2.0 5.0 0.00 0.00 0.00 77 1015.0
20260506091704 49 323 2.0 5.0 0.00 0.00 0.00 77 1015.1
20260506091203 48 101 1.0 3.0 0.00 0.00 0.00 77 1015.1
20260506090704 48 82 3.0 6.0 0.00 0.00 0.00 77 1015.1
20260506090203 47 48 1.0 2.0 0.00 0.00 0.00 77 1015.2
20260506085703 46 45 3.0 5.0 0.00 0.00 0.00 76 1015.2
20260506084704 47 81 3.0 7.0 0.00 0.00 0.00 78 1015.3
20260506084204 47 302 3.0 5.0 0.00 0.00 0.00 78 1015.3
20260506083704 47 321 3.0 6.0 0.00 0.00 0.00 79 1015.4
20260506083203 47 317 1.0 5.0 0.00 0.00 0.00 81 1015.4
20260506082204 46 276 2.0 3.0 0.00 0.00 0.00 82 1015.5
20260506081704 46 142 3.0 5.0 0.00 0.00 0.00 83 1015.5
20260506081204 45 203 2.0 3.0 0.00 0.00 0.00 84 1015.6
20260506080704 45 234 1.0 3.0 0.00 0.00 0.00 85 1015.7
20260506080204 45 236 1.0 3.0 0.00 0.00 0.00 84 1015.7
20260506073203 42 255 1.0 3.0 0.00 0.01 0.00 87 1015.7
20260506072704 41 234 1.0 3.0 0.00 0.02 0.00 87 1015.6
20260506072204 41 234 1.0 3.0 0.00 0.02 0.00 88 1015.7
20260506071704 40 256 2.0 3.0 0.00 0.02 0.00 88 1015.7
20260506071204 40 207 1.0 2.0 0.00 0.02 0.00 88 1015.8
20260506070204 39 165 0.0 0.0 0.00 0.02 0.00 89 1015.8
20260506062203 34 83 0.0 0.0 0.00 0.02 0.00 88 1015.7
20260506061704 33 83 0.0 0.0 0.00 0.02 0.00 88 1015.7
20260506061204 33 83 0.0 0.0 0.00 0.02 0.00 88 1015.7
20260506060703 33 83 0.0 0.0 0.00 0.02 0.00 88 1015.7
20260506060203 33 83 0.0 0.0 0.00 0.02 0.00 88 1015.7
20260506051205 31 82 0.0 0.0 0.00 0.02 0.00 87 1015.9
20260506050204 30 82 0.0 0.0 0.00 0.02 0.00 87 1016.0
20260506044704 31 82 0.0 0.0 0.00 0.02 0.00 87 1016.1
20260506043703 31 82 0.0 0.0 0.00 0.02 0.00 87 1016.1
20260506043203 31 82 0.0 0.0 0.00 0.02 0.00 87 1016.1
20260506042704 31 82 0.0 0.0 0.00 0.02 0.00 87 1016.1
20260506042204 31 82 0.0 0.0 0.00 0.02 0.00 87 1016.2
20260506041704 31 82 0.0 0.0 0.00 0.02 0.00 86 1016.2
20260506041203 31 82 0.0 0.0 0.00 0.02 0.00 86 1016.2
20260506040704 31 82 0.0 0.0 0.00 0.02 0.00 86 1016.3
20260506035703 32 82 0.0 0.0 0.00 0.02 0.00 86 1016.4
20260506034704 31 82 0.0 0.0 0.00 0.02 0.00 85 1016.4
20260506034204 31 82 0.0 0.0 0.00 0.02 0.00 85 1016.4
20260506033704 32 82 0.0 0.0 0.00 0.02 0.00 85 1016.4
20260506032704 32 82 0.0 0.0 0.00 0.02 0.00 85 1016.4
20260506032203 32 82 0.0 0.0 0.00 0.02 0.00 85 1016.4
20260506031704 32 82 0.0 0.0 0.00 0.02 0.00 85 1016.4
20260506031204 32 82 0.0 0.0 0.00 0.02 0.00 84 1016.4
20260506030704 32 82 0.0 0.0 0.00 0.02 0.00 84 1016.5
20260506030204 32 82 0.0 0.0 0.00 0.02 0.00 84 1016.6
20260506025703 32 82 0.0 0.0 0.00 0.02 0.00 84 1016.5
20260506025204 33 82 0.0 0.0 0.00 0.02 0.00 84 1016.6
20260506024203 33 82 0.0 0.0 0.00 0.02 0.00 83 1016.7
20260506023704 33 82 0.0 0.0 0.00 0.02 0.00 83 1016.7
20260506022704 34 82 0.0 0.0 0.00 0.02 0.00 83 1016.7
20260506022204 34 82 0.0 0.0 0.00 0.02 0.00 83 1016.7
20260506021703 34 82 0.0 0.0 0.00 0.02 0.00 83 1016.7
20260506021204 35 82 0.0 0.0 0.00 0.02 0.00 83 1016.7
20260506020703 35 82 0.0 0.0 0.00 0.02 0.00 83 1016.7
20260506020203 35 82 0.0 0.0 0.00 0.02 0.00 83 1016.8
20260506015204 35 82 0.0 0.0 0.00 0.02 0.00 83 1016.7
20260506014703 35 82 0.0 0.0 0.00 0.02 0.00 82 1016.7
20260506014204 36 82 0.0 0.0 0.00 0.02 0.00 82 1016.6
20260506013204 36 93 0.0 1.0 0.00 0.02 0.00 81 1016.7
20260506012703 37 103 1.0 2.0 0.00 0.02 0.00 81 1016.8
20260506012204 38 103 0.0 1.0 0.00 0.02 0.00 81 1016.9
20260506010703 39 103 0.0 0.0 0.00 0.02 0.00 81 1017.0
20260506010205 39 103 0.0 1.0 0.00 0.02 0.00 81 1017.1
20260506005704 39 103 1.0 2.0 0.00 0.02 0.00 81 1017.1
20260506005204 40 31 0.0 1.0 0.00 0.02 0.00 80 1017.1
20260506004204 41 31 0.0 0.0 0.00 0.02 0.00 80 1017.3
20260506003703 41 32 0.0 1.0 0.00 0.02 0.00 80 1017.2
20260506003204 41 31 1.0 2.0 0.00 0.02 0.00 80 1017.4
20260506002703 41 31 0.0 1.0 0.00 0.02 0.00 80 1017.4
20260506002204 41 32 1.0 2.0 0.00 0.02 0.00 80 1017.4
20260506001704 41 14 1.0 3.0 0.00 0.02 0.00 80 1017.5
20260506001204 41 17 1.0 2.0 0.00 0.02 0.00 80 1017.4
20260506000205 42 5 0.0 1.0 0.00 0.02 0.00 80 1017.5
20260505235203 42 342 1.0 2.0 0.00 0.02 0.00 79 1017.4
20260505234703 42 342 0.0 1.0 0.00 0.02 0.00 79 1017.3
20260505234204 42 351 1.0 2.0 0.00 0.02 0.00 79 1017.3
20260505233704 43 20 0.0 1.0 0.00 0.02 0.00 79 1017.2
20260505233203 43 20 0.0 3.0 0.00 0.02 0.00 79 1017.2
20260505232703 43 45 2.0 6.0 0.00 0.02 0.00 78 1017.2
20260505231704 43 50 2.0 5.0 0.00 0.02 0.00 78 1017.3
20260505231204 43 69 3.0 5.0 0.00 0.02 0.00 78 1017.3
20260505230703 43 67 2.0 8.0 0.00 0.02 0.00 78 1017.5
20260505230203 43 69 5.0 7.0 0.00 0.02 0.00 78 1017.4
20260505225704 43 80 4.0 8.0 0.00 0.02 0.08 78 1017.5
20260505225204 43 68 4.0 8.0 0.00 0.02 0.08 78 1017.6
20260505224204 43 67 3.0 6.0 0.00 0.02 0.08 77 1017.6
20260505223703 43 64 5.0 9.0 0.00 0.02 0.08 78 1017.6
20260505223203 43 65 3.0 8.0 0.00 0.02 0.08 78 1017.6
20260505222704 43 52 3.0 8.0 0.00 0.02 0.08 78 1017.6
20260505222204 43 50 2.0 3.0 0.00 0.02 0.08 78 1017.5
20260505221703 43 25 2.0 5.0 0.00 0.02 0.08 79 1017.6
20260505221203 42 35 2.0 3.0 0.00 0.02 0.08 79 1017.6
20260505220204 42 58 1.0 3.0 0.00 0.02 0.08 79 1017.6
20260505215703 42 64 1.0 2.0 0.00 0.02 0.08 79 1017.6
20260505214203 43 57 1.0 2.0 0.00 0.02 0.08 80 1017.6
20260505213703 43 55 2.0 3.0 0.00 0.02 0.08 80 1017.6
20260505213203 43 31 1.0 2.0 0.00 0.02 0.08 81 1017.5
20260505212704 43 19 2.0 3.0 0.00 0.02 0.08 81 1017.5
20260505212204 43 350 2.0 3.0 0.00 0.02 0.08 81 1017.5
20260505211703 43 8 2.0 3.0 0.00 0.02 0.08 81 1017.4
20260505211203 43 25 1.0 3.0 0.00 0.02 0.08 81 1017.5
20260505210704 43 11 2.0 3.0 0.00 0.02 0.08 81 1017.4
20260505210204 43 28 2.0 3.0 0.00 0.02 0.08 82 1017.3
20260505205703 44 14 3.0 3.0 0.00 0.02 0.08 82 1017.3
20260505205203 44 11 2.0 3.0 0.00 0.02 0.08 81 1017.2
20260505204703 44 23 3.0 3.0 0.00 0.02 0.08 81 1017.4
20260505203204 45 22 2.0 3.0 0.00 0.02 0.08 81 1017.4
20260505202703 45 5 2.0 3.0 0.00 0.02 0.08 81 1017.4
20260505202203 45 17 1.0 3.0 0.00 0.02 0.08 80 1017.4
20260505201703 45 16 2.0 3.0 0.00 0.02 0.08 80 1017.3
20260505201203 46 21 3.0 3.0 0.00 0.02 0.08 80 1017.2
20260505200703 46 17 3.0 3.0 0.00 0.02 0.08 80 1017.3
20260505200203 46 18 2.0 3.0 0.00 0.02 0.08 80 1017.3
20260505195703 46 21 3.0 5.0 0.00 0.02 0.08 80 1017.4
20260505194704 47 26 3.0 6.0 0.00 0.02 0.08 79 1017.6
20260505194204 47 16 4.0 7.0 0.00 0.02 0.08 79 1017.6
20260505193703 48 15 3.0 8.0 0.00 0.02 0.08 79 1017.6
20260505193203 48 20 4.0 7.0 0.00 0.02 0.08 78 1017.5
20260505192704 48 21 5.0 7.0 0.00 0.02 0.08 78 1017.5
20260505191704 49 3 5.0 12.0 0.00 0.02 0.08 78 1017.4
20260505191203 49 2 6.0 9.0 0.00 0.02 0.08 78 1017.4
20260505190204 49 23 6.0 10.0 0.00 0.02 0.08 77 1017.4
20260505185703 49 16 6.0 10.0 0.00 0.02 0.08 77 1017.4
20260505185203 49 18 6.0 12.0 0.00 0.02 0.08 77 1017.4
20260505184703 49 20 6.0 10.0 0.00 0.02 0.08 77 1017.4
20260505184203 49 11 6.0 9.0 0.00 0.02 0.08 77 1017.4
20260505183703 49 6 3.0 8.0 0.00 0.02 0.08 77 1017.4
20260505183203 49 12 4.0 9.0 0.00 0.02 0.08 77 1017.5
20260505182703 49 17 6.0 10.0 0.00 0.02 0.08 77 1017.5
20260505182204 49 19 5.0 8.0 0.00 0.02 0.08 76 1017.4
20260505181204 50 20 6.0 10.0 0.00 0.02 0.08 76 1017.5
20260505180703 49 7 6.0 12.0 0.00 0.02 0.08 76 1017.4
20260505180203 49 17 4.0 12.0 0.00 0.02 0.08 76 1017.3
20260505175703 49 5 3.0 8.0 0.00 0.02 0.08 76 1017.4
20260505175203 49 7 5.0 12.0 0.00 0.02 0.08 76 1017.4
20260505174704 49 25 6.0 10.0 0.00 0.02 0.08 76 1017.4
20260505174204 50 18 7.0 12.0 0.00 0.02 0.08 76 1017.5
20260505173703 50 353 6.0 12.0 0.00 0.02 0.08 76 1017.4
20260505173204 50 15 6.0 12.0 0.00 0.02 0.08 75 1017.4
20260505172703 50 34 7.0 12.0 0.00 0.02 0.08 74 1017.4
20260505172203 50 15 7.0 12.0 0.00 0.02 0.08 74 1017.5
20260505171703 51 11 8.0 12.0 0.00 0.02 0.08 74 1017.4
20260505170204 52 28 5.0 10.0 0.00 0.02 0.08 71 1017.3
20260505165203 53 7 5.0 9.0 0.00 0.02 0.08 73 1017.4
20260505164704 53 359 5.0 9.0 0.00 0.02 0.08 71 1017.3
20260505164203 53 336 6.0 9.0 0.00 0.02 0.08 71 1017.4
20260505163704 53 29 4.0 12.0 0.00 0.02 0.08 71 1017.4
20260505162704 53 347 6.0 10.0 0.00 0.02 0.08 72 1017.4
20260505161703 52 19 7.0 12.0 0.00 0.02 0.08 73 1017.4
20260505161203 52 11 7.0 10.0 0.00 0.02 0.08 72 1017.5